Location: Dal�� Lhota
(48.7500°N, 14.0167°E)
Time: 23:11:06
(UTC+00:00)

Cosmos 1844 - Pass Details

Date: 24 September 2020
Orbit: 824 x 866 km, 70.9° (Epoch: 25 October)

Event Time Altitude Azimuth Distance (km) Brightness Sun altitude
Rises 18:03:04 0° 195° (SSW) 3,406 6.9 -11.7°
Reaches altitude 10° 18:05:32 10° 192° (SSW) 2,468 6.1 -12.1°
Maximum altitude 18:11:07 62° 113° (ESE) 946 3.7 -13.0°
Drops below altitude 10° 18:16:40 10° 34° (NE) 2,457 5.9 -13.8°
Sets 18:19:07 0° 31° (NNE) 3,389 6.7 -14.2°
